Location: Cary
(35.7910°N, 78.7810°W)
Time: 16:50:41
(UTC-05:00)

Envisat - Visible Passes

Search period start: 01 December 2021 00:00
Search period end: 11 December 2021 00:00
Orbit: 764 x 766 km, 98.2° (Epoch: 01 December)

Date Brightness Start Highest point End Pass type
(mag) Time Alt. Az. Time Alt. Az. Time Alt. Az.
01 Dec 5.5 04:10:39 10° NE 04:14:12 19° E 04:17:43 10° SE visible
01 Dec 3.3 05:48:34 10° N 05:53:21 42° WNW 05:58:06 10° SW visible
02 Dec 3.0 05:11:30 10° NNE 05:16:36 82° ESE 05:21:40 10° S visible
03 Dec 4.5 04:35:04 10° NNE 04:39:40 34° E 04:44:15 10° SSE visible
03 Dec 4.0 06:14:26 10° NNW 06:18:27 24° WNW 06:22:28 10° WSW visible
03 Dec 5.7 17:26:18 10° SSW 17:30:19 24° W 17:34:22 10° NW visible
04 Dec 5.8 03:59:50 10° ENE 04:02:33 14° E 04:05:15 10° SE visible
04 Dec 3.0 05:36:53 10° N 05:41:51 55° WNW 05:46:47 10° SSW visible
05 Dec 3.4 05:00:00 10° NNE 05:05:02 63° E 05:10:03 10° S visible
05 Dec 4.6 06:40:58 10° NW 06:43:28 14° WNW 06:45:58 10° W visible
05 Dec 6.2 17:53:38 10° WSW 17:55:50 13° W 17:58:05 10° WNW visible
06 Dec 5.0 04:23:48 10° NE 04:28:03 26° E 04:32:16 10° SSE visible
06 Dec 3.7 06:02:35 10° N 06:07:00 31° WNW 06:11:23 10° SW visible
07 Dec 6.1 03:49:46 10° ENE 03:50:52 11° E 03:51:58 10° ESE visible
07 Dec 2.8 05:25:15 10° N 05:30:20 72° WNW 05:35:22 10° SSW visible
08 Dec 3.9 04:48:33 10° NNE 04:53:28 48° E 04:58:21 10° S visible
08 Dec 4.3 06:28:45 10° NNW 06:32:03 18° WNW 06:35:21 10° WSW visible
08 Dec 5.9 17:40:57 10° SW 17:44:10 17° W 17:47:26 10° NW visible
09 Dec 5.4 04:12:41 10° NE 04:16:24 20° E 04:20:08 10° SE visible
09 Dec 3.4 05:50:49 10° N 05:55:31 39° WNW 06:00:12 10° SW visible
10 Dec 2.9 05:13:41 10° NNE 05:18:47 88° ESE 05:23:52 10° SSW visible
